AUA7D EDDK-LOWW

Flight info

Callsign AUA7D
Flight time 1h 3m
Altitude 35000
Route KUMIK1R KUMIK L603 TESGA DCT ESATI DCT BARSU DCT EKSOS DCT LULAR DCT RUDAP DCT BUDEX BUDEX2W
Aircraft A320/M-V/N

Departure

Time 2026-04-20 12:12
Airport Cologne Bonn Airport (EDDK)

Arrival

Time 2026-04-20 13:15
Airport Vienna International Airport (LOWW)
Time Latitude Longitude Altitude Speed Heading
2026-04-20 11:52 50.87981 7.12371 230 ft 0 kts 215°
2026-04-20 11:58 50.87990 7.12381 230 ft 2 kts 215°
2026-04-20 11:58 50.88004 7.12397 231 ft 2 kts 215°
2026-04-20 11:58 50.88018 7.12413 234 ft 2 kts 215°
2026-04-20 11:59 50.88032 7.12428 254 ft 2 kts 215°
2026-04-20 11:59 50.88046 7.12444 232 ft 2 kts 215°
2026-04-20 11:59 50.88059 7.12457 231 ft 0 kts 188°
2026-04-20 12:00 50.88058 7.12457 231 ft 0 kts 191°
2026-04-20 12:01 50.88058 7.12456 230 ft 1 kts 191°
2026-04-20 12:01 50.88051 7.12462 230 ft 1 kts 160°
2026-04-20 12:01 50.88049 7.12464 230 ft 0 kts 152°
2026-04-20 12:01 50.88048 7.12465 230 ft 1 kts 152°
2026-04-20 12:02 50.88025 7.12510 232 ft 7 kts 123°
2026-04-20 12:02 50.88000 7.12573 230 ft 10 kts 128°
2026-04-20 12:02 50.87937 7.12626 230 ft 10 kts 177°
2026-04-20 12:02 50.87871 7.12611 230 ft 9 kts 184°
2026-04-20 12:03 50.87816 7.12638 230 ft 8 kts 147°
2026-04-20 12:03 50.87781 7.12692 230 ft 6 kts 129°
2026-04-20 12:03 50.87749 7.12730 230 ft 6 kts 142°
2026-04-20 12:03 50.87710 7.12786 230 ft 7 kts 137°
2026-04-20 12:04 50.87666 7.12849 230 ft 13 kts 137°
2026-04-20 12:04 50.87573 7.12989 230 ft 20 kts 136°
2026-04-20 12:04 50.87478 7.13121 232 ft 17 kts 136°
2026-04-20 12:04 50.87392 7.13248 232 ft 18 kts 137°
2026-04-20 12:05 50.87308 7.13369 235 ft 16 kts 137°
2026-04-20 12:05 50.87200 7.13524 238 ft 23 kts 137°
2026-04-20 12:05 50.87094 7.13678 241 ft 19 kts 138°
2026-04-20 12:05 50.87003 7.13807 243 ft 16 kts 138°
2026-04-20 12:06 50.86926 7.13919 243 ft 14 kts 136°
2026-04-20 12:06 50.86859 7.14017 245 ft 11 kts 139°
2026-04-20 12:06 50.86809 7.14091 249 ft 12 kts 136°
2026-04-20 12:06 50.86753 7.14140 252 ft 7 kts 167°
2026-04-20 12:07 50.86714 7.14170 254 ft 11 kts 141°
2026-04-20 12:07 50.86661 7.14244 257 ft 10 kts 137°
2026-04-20 12:07 50.86569 7.14377 258 ft 20 kts 138°
2026-04-20 12:07 50.86472 7.14518 260 ft 17 kts 137°
2026-04-20 12:08 50.86383 7.14648 264 ft 23 kts 138°
2026-04-20 12:08 50.86269 7.14811 269 ft 20 kts 138°
2026-04-20 12:08 50.86164 7.14963 271 ft 25 kts 137°
2026-04-20 12:08 50.86040 7.15141 276 ft 22 kts 135°
2026-04-20 12:09 50.85937 7.15291 282 ft 19 kts 137°
2026-04-20 12:09 50.85851 7.15418 286 ft 16 kts 137°
2026-04-20 12:09 50.85777 7.15527 293 ft 18 kts 137°
2026-04-20 12:09 50.85631 7.15737 298 ft 32 kts 137°
2026-04-20 12:10 50.85490 7.15962 303 ft 16 kts 103°
2026-04-20 12:10 50.85532 7.16081 304 ft 11 kts 47°
2026-04-20 12:10 50.85595 7.16191 309 ft 14 kts 48°
2026-04-20 12:10 50.85655 7.16293 310 ft 12 kts 43°
2026-04-20 12:11 50.85740 7.16245 306 ft 21 kts 317°
2026-04-20 12:11 50.86015 7.15851 296 ft 88 kts 317°
2026-04-20 12:11 50.86621 7.14973 263 ft 144 kts 317°
2026-04-20 12:11 50.87383 7.13845 823 ft 148 kts 317°
2026-04-20 12:12 50.88159 7.12727 1616 ft 158 kts 317°
2026-04-20 12:12 50.89071 7.11476 1894 ft 190 kts 323°
2026-04-20 12:12 50.90395 7.10886 2297 ft 211 kts
2026-04-20 12:12 50.91724 7.11949 3105 ft 219 kts 32°
2026-04-20 12:13 50.92958 7.13397 4058 ft 217 kts 36°
2026-04-20 12:13 50.93929 7.15246 4804 ft 231 kts 59°
2026-04-20 12:13 50.94695 7.17638 5249 ft 255 kts 61°
2026-04-20 12:13 50.95506 7.20201 5989 ft 264 kts 61°
2026-04-20 12:14 50.96330 7.22827 6888 ft 267 kts 62°
2026-04-20 12:14 50.97164 7.25486 7760 ft 271 kts 62°
2026-04-20 12:14 50.98009 7.28178 8616 ft 275 kts 62°
2026-04-20 12:14 50.98870 7.30914 9482 ft 279 kts 62°
2026-04-20 12:15 50.99745 7.33684 10312 ft 283 kts 62°
2026-04-20 12:15 51.00643 7.36587 10695 ft 305 kts 66°
2026-04-20 12:15 51.01285 7.39932 10996 ft 328 kts 79°
2026-04-20 12:15 51.01440 7.43603 11609 ft 338 kts 92°
2026-04-20 12:16 51.01081 7.47323 12340 ft 344 kts 104°
2026-04-20 12:16 51.00385 7.50982 13082 ft 349 kts 106°
2026-04-20 12:16 50.99668 7.54681 13819 ft 353 kts 106°
2026-04-20 12:16 50.98933 7.58422 14467 ft 357 kts 106°
2026-04-20 12:17 50.98184 7.62204 15110 ft 361 kts 107°
2026-04-20 12:17 50.97429 7.66017 15764 ft 364 kts 107°
2026-04-20 12:17 50.96666 7.69869 16410 ft 368 kts 107°
2026-04-20 12:17 50.95894 7.73760 17059 ft 371 kts 107°
2026-04-20 12:18 50.95118 7.77683 17706 ft 375 kts 106°
2026-04-20 12:18 50.94226 7.81582 18336 ft 378 kts 114°
2026-04-20 12:18 50.92919 7.85222 18898 ft 382 kts 123°
2026-04-20 12:18 50.91442 7.88742 19437 ft 385 kts 123°
2026-04-20 12:19 50.89956 7.92290 19981 ft 388 kts 123°
2026-04-20 12:19 50.88462 7.95865 20513 ft 391 kts 123°
2026-04-20 12:19 50.86953 7.99464 21038 ft 394 kts 123°
2026-04-20 12:19 50.85431 8.03089 21542 ft 397 kts 123°
2026-04-20 12:20 50.83901 8.06738 22056 ft 400 kts 123°
2026-04-20 12:20 50.82358 8.10420 22560 ft 402 kts 123°
2026-04-20 12:20 50.80805 8.14118 23045 ft 406 kts 123°
2026-04-20 12:20 50.79234 8.17840 23527 ft 409 kts 123°
2026-04-20 12:21 50.77651 8.21587 23955 ft 412 kts 123°
2026-04-20 12:21 50.76055 8.25362 24318 ft 416 kts 123°
2026-04-20 12:21 50.74436 8.29182 24648 ft 420 kts 123°
2026-04-20 12:21 50.72805 8.33026 25002 ft 424 kts 123°
2026-04-20 12:22 50.71101 8.36836 25353 ft 427 kts 129°
2026-04-20 12:22 50.69054 8.40251 25709 ft 430 kts 139°
2026-04-20 12:22 50.66670 8.43112 26062 ft 432 kts 148°
2026-04-20 12:22 50.64032 8.45437 26416 ft 435 kts 153°
2026-04-20 12:23 50.61398 8.47776 26737 ft 439 kts 146°
2026-04-20 12:23 50.59123 8.51003 27034 ft 444 kts 129°
2026-04-20 12:23 50.57496 8.55141 27331 ft 448 kts 113°
2026-04-20 12:23 50.56300 8.59691 27640 ft 451 kts 111°
2026-04-20 12:24 50.55126 8.64285 27968 ft 455 kts 111°
2026-04-20 12:24 50.53951 8.68924 28279 ft 459 kts 111°
2026-04-20 12:24 50.52766 8.73597 28588 ft 462 kts 111°
2026-04-20 12:24 50.51566 8.78310 28892 ft 466 kts 111°
2026-04-20 12:25 50.50353 8.83038 29187 ft 469 kts 111°
2026-04-20 12:25 50.49120 8.87802 29464 ft 473 kts 112°
2026-04-20 12:25 50.47872 8.92599 29737 ft 476 kts 112°
2026-04-20 12:25 50.47317 8.94722 29865 ft 477 kts 112°
2026-04-20 12:26 50.46439 8.98084 30006 ft 479 kts 112°
2026-04-20 12:26 50.45173 9.02936 30266 ft 483 kts 112°
2026-04-20 12:26 50.43893 9.07831 30492 ft 485 kts 112°
2026-04-20 12:26 50.42608 9.12737 30725 ft 488 kts 112°
2026-04-20 12:27 50.41316 9.17662 30953 ft 490 kts 112°
2026-04-20 12:27 50.40015 9.22608 31187 ft 493 kts 112°
2026-04-20 12:27 50.38704 9.27591 31467 ft 493 kts 112°
2026-04-20 12:27 50.37397 9.32550 31804 ft 493 kts 112°
2026-04-20 12:28 50.36530 9.35834 32035 ft 493 kts 112°
2026-04-20 12:28 50.35218 9.40795 32364 ft 492 kts 112°
2026-04-20 12:28 50.33905 9.45747 32696 ft 492 kts 112°
2026-04-20 12:28 50.32590 9.50693 33017 ft 492 kts 112°
2026-04-20 12:29 50.31273 9.55636 33130 ft 493 kts 112°
2026-04-20 12:29 50.29950 9.60582 33138 ft 492 kts 112°
2026-04-20 12:29 50.27307 9.70436 33136 ft 492 kts 112°
2026-04-20 12:30 50.24651 9.80318 33137 ft 492 kts 112°
2026-04-20 12:30 50.21969 9.90240 33141 ft 492 kts 112°
2026-04-20 12:31 50.19297 10.00079 33140 ft 493 kts 112°
2026-04-20 12:31 50.16612 10.09932 33135 ft 493 kts 112°
2026-04-20 12:32 50.13884 10.19895 33137 ft 493 kts 112°
2026-04-20 12:32 50.11219 10.29593 33133 ft 494 kts 112°
2026-04-20 12:33 50.08491 10.39465 33121 ft 494 kts 113°
2026-04-20 12:33 50.05783 10.49231 33119 ft 494 kts 113°
2026-04-20 12:34 50.03055 10.59046 33117 ft 494 kts 113°
2026-04-20 12:34 50.00299 10.68914 33116 ft 494 kts 113°
2026-04-20 12:35 49.97549 10.78697 33118 ft 494 kts 113°
2026-04-20 12:35 49.94798 10.88483 33102 ft 494 kts 113°
2026-04-20 12:36 49.92039 10.98254 33107 ft 494 kts 113°
2026-04-20 12:36 49.89261 11.08016 33115 ft 495 kts 113°
2026-04-20 12:37 49.86468 11.17771 33094 ft 495 kts 113°
2026-04-20 12:37 49.83678 11.27516 33096 ft 495 kts 113°
2026-04-20 12:38 49.80863 11.37329 33101 ft 495 kts 114°
2026-04-20 12:38 49.78033 11.47129 33094 ft 495 kts 114°
2026-04-20 12:39 49.73796 11.61700 33082 ft 495 kts 114°
2026-04-20 12:40 49.70899 11.71621 33077 ft 495 kts 114°
2026-04-20 12:40 49.68111 11.81147 33071 ft 495 kts 114°
2026-04-20 12:41 49.65260 11.90852 33072 ft 496 kts 114°
2026-04-20 12:41 49.62405 12.00535 33072 ft 496 kts 114°
2026-04-20 12:42 49.59534 12.10218 33074 ft 496 kts 114°
2026-04-20 12:42 49.56630 12.19940 33074 ft 496 kts 114°
2026-04-20 12:43 49.53743 12.29599 33082 ft 496 kts 114°
2026-04-20 12:43 49.50862 12.39240 33080 ft 496 kts 114°
2026-04-20 12:44 49.47957 12.48891 33078 ft 497 kts 115°
2026-04-20 12:44 49.45041 12.58515 33077 ft 496 kts 115°
2026-04-20 12:45 49.42118 12.68118 33074 ft 496 kts 115°
2026-04-20 12:45 49.39181 12.77757 33072 ft 496 kts 115°
2026-04-20 12:46 49.36219 12.87425 33068 ft 496 kts 115°
2026-04-20 12:46 49.33296 12.96944 33070 ft 496 kts 115°
2026-04-20 12:47 49.30339 13.06569 33071 ft 505 kts 115°
2026-04-20 12:47 49.27289 13.16425 33068 ft 518 kts 115°
2026-04-20 12:48 49.24177 13.26391 33063 ft 520 kts 115°
2026-04-20 12:48 49.21260 13.36530 33063 ft 521 kts 112°
2026-04-20 12:49 49.18591 13.46842 33056 ft 521 kts 111°
2026-04-20 12:49 49.15927 13.57128 33055 ft 521 kts 112°
2026-04-20 12:50 49.13146 13.67418 33050 ft 521 kts 112°
2026-04-20 12:50 49.12217 13.70794 32929 ft 520 kts 112°
2026-04-20 12:50 49.10335 13.77608 32576 ft 521 kts 112°
2026-04-20 12:50 49.08953 13.82626 32321 ft 522 kts 112°
2026-04-20 12:51 49.07546 13.87744 32055 ft 522 kts 112°
2026-04-20 12:51 49.06119 13.92940 31790 ft 523 kts 112°
2026-04-20 12:51 49.04718 13.98028 31546 ft 523 kts 112°
2026-04-20 12:51 49.03309 14.03141 31303 ft 524 kts 113°
2026-04-20 12:52 49.01898 14.08253 31054 ft 524 kts 113°
2026-04-20 12:52 49.00485 14.13362 30801 ft 516 kts 113°
2026-04-20 12:52 48.99106 14.18329 30557 ft 502 kts 113°
2026-04-20 12:52 48.97760 14.23153 30309 ft 489 kts 113°
2026-04-20 12:53 48.96444 14.27862 30063 ft 478 kts 113°
2026-04-20 12:53 48.95068 14.32413 29774 ft 470 kts 120°
2026-04-20 12:53 48.93337 14.36581 29482 ft 464 kts 128°
2026-04-20 12:53 48.91380 14.40453 29193 ft 461 kts 129°
2026-04-20 12:54 48.89429 14.44301 28909 ft 458 kts 129°
2026-04-20 12:54 48.87496 14.48127 28633 ft 455 kts 129°
2026-04-20 12:54 48.85575 14.51937 28342 ft 453 kts 129°
2026-04-20 12:54 48.84275 14.54515 28158 ft 451 kts 129°
2026-04-20 12:55 48.82387 14.58248 27842 ft 444 kts 129°
2026-04-20 12:55 48.80524 14.61924 27333 ft 435 kts 130°
2026-04-20 12:55 48.78698 14.65517 26840 ft 426 kts 130°
2026-04-20 12:55 48.76902 14.69038 26368 ft 417 kts 130°
2026-04-20 12:56 48.75142 14.72480 25904 ft 409 kts 130°
2026-04-20 12:56 48.73414 14.75853 25465 ft 401 kts 130°
2026-04-20 12:56 48.71719 14.79166 25032 ft 394 kts 130°
2026-04-20 12:56 48.70025 14.82477 24599 ft 406 kts 130°
2026-04-20 12:57 48.68309 14.85826 24141 ft 398 kts 130°
2026-04-20 12:57 48.66625 14.89116 23875 ft 395 kts 130°
2026-04-20 12:57 48.64952 14.92374 23286 ft 389 kts 130°
2026-04-20 12:57 48.63304 14.95579 22494 ft 383 kts 130°
2026-04-20 12:58 48.61679 14.98733 21719 ft 378 kts 130°
2026-04-20 12:58 48.60118 15.01911 20981 ft 375 kts 124°
2026-04-20 12:58 48.58893 15.05362 20262 ft 372 kts 114°
2026-04-20 12:58 48.58053 15.09044 19553 ft 369 kts 105°
2026-04-20 12:59 48.57421 15.12779 18858 ft 366 kts 105°
2026-04-20 12:59 48.56789 15.16477 18180 ft 362 kts 105°
2026-04-20 12:59 48.56157 15.20141 17447 ft 359 kts 105°
2026-04-20 12:59 48.55527 15.23769 16742 ft 355 kts 105°
2026-04-20 13:00 48.54902 15.27356 16083 ft 352 kts 105°
2026-04-20 13:00 48.54281 15.30910 15447 ft 348 kts 105°
2026-04-20 13:00 48.53641 15.34562 14841 ft 346 kts 105°
2026-04-20 13:00 48.53050 15.37941 14412 ft 343 kts 104°
2026-04-20 13:01 48.52445 15.41409 13952 ft 341 kts 104°
2026-04-20 13:01 48.51965 15.44891 13467 ft 338 kts 96°
2026-04-20 13:01 48.51760 15.48401 12984 ft 334 kts 94°
2026-04-20 13:01 48.51572 15.51875 12504 ft 331 kts 94°
2026-04-20 13:02 48.51383 15.55314 12037 ft 328 kts 94°
2026-04-20 13:02 48.51191 15.58722 11601 ft 324 kts 95°
2026-04-20 13:02 48.50996 15.62093 11130 ft 321 kts 95°
2026-04-20 13:02 48.50803 15.65435 10669 ft 319 kts 95°
2026-04-20 13:03 48.50612 15.68750 10205 ft 315 kts 95°
2026-04-20 13:03 48.50423 15.72022 9562 ft 312 kts 95°
2026-04-20 13:03 48.50235 15.75264 8884 ft 309 kts 95°
2026-04-20 13:03 48.49810 15.78413 8202 ft 304 kts 109°
2026-04-20 13:04 48.49138 15.81415 7499 ft 303 kts 109°
2026-04-20 13:04 48.48464 15.84413 6806 ft 301 kts 109°
2026-04-20 13:04 48.47793 15.87388 6129 ft 299 kts 109°
2026-04-20 13:04 48.47128 15.90342 5417 ft 297 kts 108°
2026-04-20 13:05 48.46475 15.93243 5057 ft 284 kts 108°
2026-04-20 13:05 48.45865 15.95953 4977 ft 262 kts 108°
2026-04-20 13:05 48.45285 15.98526 4995 ft 258 kts 108°
2026-04-20 13:05 48.44707 16.01075 4986 ft 257 kts 108°
2026-04-20 13:06 48.44130 16.03618 4989 ft 257 kts 108°
2026-04-20 13:06 48.43550 16.06165 4994 ft 256 kts 109°
2026-04-20 13:06 48.42975 16.08688 4979 ft 254 kts 108°
2026-04-20 13:06 48.42402 16.11198 4984 ft 254 kts 108°
2026-04-20 13:07 48.41828 16.13714 4985 ft 254 kts 108°
2026-04-20 13:07 48.41248 16.16265 4987 ft 254 kts 108°
2026-04-20 13:07 48.40678 16.18774 4986 ft 253 kts 108°
2026-04-20 13:07 48.40107 16.21273 4986 ft 253 kts 108°
2026-04-20 13:08 48.39534 16.23778 4986 ft 253 kts 109°
2026-04-20 13:08 48.38960 16.26279 4987 ft 253 kts 108°
2026-04-20 13:08 48.38387 16.28769 4989 ft 253 kts 108°
2026-04-20 13:08 48.37809 16.31280 4985 ft 253 kts 108°
2026-04-20 13:09 48.37205 16.33761 4986 ft 252 kts 112°
2026-04-20 13:09 48.36509 16.36104 4985 ft 238 kts 114°
2026-04-20 13:09 48.35784 16.38304 4994 ft 233 kts 122°
2026-04-20 13:09 48.34884 16.40314 5007 ft 232 kts 126°
2026-04-20 13:10 48.33915 16.42239 5000 ft 230 kts 129°
2026-04-20 13:10 48.32912 16.44119 4994 ft 230 kts 129°
2026-04-20 13:10 48.31837 16.45896 4925 ft 230 kts 142°
2026-04-20 13:10 48.30440 16.46955 4576 ft 222 kts 168°
2026-04-20 13:11 48.29056 16.47946 4197 ft 222 kts 143°
2026-04-20 13:11 48.27957 16.49512 3845 ft 214 kts 135°
2026-04-20 13:11 48.26888 16.50990 3514 ft 204 kts 144°
2026-04-20 13:11 48.25661 16.51922 3297 ft 190 kts 166°
2026-04-20 13:12 48.24473 16.52486 3203 ft 170 kts 166°
2026-04-20 13:12 48.23366 16.52975 2989 ft 161 kts 167°
2026-04-20 13:12 48.22300 16.53433 2790 ft 158 kts 168°
2026-04-20 13:12 48.21245 16.53883 2586 ft 157 kts 168°
2026-04-20 13:13 48.20196 16.54330 2383 ft 157 kts 169°
2026-04-20 13:13 48.19144 16.54777 2158 ft 157 kts 169°
2026-04-20 13:13 48.18097 16.55221 1947 ft 156 kts 170°
2026-04-20 13:13 48.17058 16.55663 1737 ft 155 kts 169°
2026-04-20 13:14 48.16019 16.56116 1504 ft 156 kts 168°
2026-04-20 13:14 48.14982 16.56576 1235 ft 154 kts 165°
2026-04-20 13:14 48.13959 16.57001 1025 ft 153 kts 165°
2026-04-20 13:14 48.12938 16.57426 833 ft 151 kts 163°
2026-04-20 13:15 48.11924 16.57852 642 ft 151 kts 163°
2026-04-20 13:15 48.11021 16.58227 620 ft 110 kts 164°
2026-04-20 13:15 48.10610 16.58394 617 ft 40 kts 162°
2026-04-20 13:15 48.10342 16.58471 611 ft 39 kts 183°
2026-04-20 13:16 48.10191 16.58422 615 ft 10 kts 194°
2026-04-20 13:16 48.10135 16.58387 612 ft 8 kts 229°
2026-04-20 13:16 48.10134 16.58318 622 ft 5 kts 312°
2026-04-20 13:16 48.10172 16.58303 617 ft 10 kts 341°
2026-04-20 13:17 48.10252 16.58267 621 ft 14 kts 344°
2026-04-20 13:17 48.10392 16.58207 619 ft 25 kts 344°
2026-04-20 13:17 48.10558 16.58139 619 ft 25 kts 343°
2026-04-20 13:17 48.10722 16.58069 616 ft 23 kts 345°
2026-04-20 13:18 48.10766 16.58050 615 ft 0 kts 345°
2026-04-20 13:18 48.10767 16.58050 615 ft 1 kts 345°
2026-04-20 13:18 48.10835 16.58023 614 ft 15 kts 345°
2026-04-20 13:18 48.10934 16.57961 618 ft 16 kts 320°
2026-04-20 13:19 48.11020 16.57835 611 ft 18 kts 312°
2026-04-20 13:19 48.11129 16.57757 621 ft 18 kts 343°
2026-04-20 13:19 48.11255 16.57704 611 ft 19 kts 345°
2026-04-20 13:19 48.11390 16.57647 622 ft 21 kts 340°
2026-04-20 13:20 48.11527 16.57583 618 ft 18 kts 330°
2026-04-20 13:20 48.11518 16.57485 621 ft 7 kts 205°
2026-04-20 13:20 48.11457 16.57436 614 ft 12 kts 207°
2026-04-20 13:20 48.11383 16.57385 621 ft 11 kts 202°
2026-04-20 13:21 48.11317 16.57335 616 ft 10 kts 213°
2026-04-20 13:21 48.11309 16.57250 611 ft 8 kts 288°
2026-04-20 13:21 48.11345 16.57140 618 ft 18 kts 297°
2026-04-20 13:21 48.11404 16.56957 620 ft 20 kts 296°
2026-04-20 13:22 48.11470 16.56759 613 ft 22 kts 296°
2026-04-20 13:22 48.11539 16.56543 627 ft 24 kts 296°
2026-04-20 13:22 48.11596 16.56355 618 ft 16 kts 295°
2026-04-20 13:22 48.11654 16.56197 627 ft 18 kts 299°
2026-04-20 13:23 48.11710 16.56017 618 ft 20 kts 292°
2026-04-20 13:23 48.11773 16.55821 613 ft 22 kts 297°
2026-04-20 13:23 48.11840 16.55621 615 ft 17 kts 294°
2026-04-20 13:23 48.11897 16.55457 620 ft 16 kts 319°
2026-04-20 13:24 48.11970 16.55482 622 ft 11 kts 22°
2026-04-20 13:24 48.12047 16.55531 622 ft 13 kts 27°
2026-04-20 13:24 48.12057 16.55625 622 ft 6 kts 124°
2026-04-20 13:24 48.12055 16.55632 620 ft 0 kts 117°
2026-04-20 13:25 48.12054 16.55634 619 ft 0 kts 124°
2026-04-20 13:25 48.12052 16.55640 616 ft 0 kts 119°
2026-04-20 13:25 48.12051 16.55640 616 ft 0 kts 119°